This is the latest recevied weather packets stored in our database for station/object K0QED. If no packets are shown the sender has not sent any weather packets the latest 10 day(s).
| Time | Temp. | Humidity | Pressure | Rain* | Wind** | Luminosity | Snow |
|---|---|---|---|---|---|---|---|
| 1777125675 | -1.67° C | 89% | 1013.7 hPa | 0 mm | - | 41 W/m² | - |
| 1777125371 | -1.67° C | 89% | 1013.7 hPa | 0 mm | - | 26 W/m² | - |
| 1777125066 | -2.22° C | 91% | 1013.5 hPa | 0 mm | - | 29 W/m² | - |
| 1777124762 | -2.22° C | 92% | 1013.7 hPa | 0 mm | - | 33 W/m² | - |
| 1777124457 | -2.22° C | 93% | 1013.4 hPa | 0 mm | - | 27 W/m² | - |
| 1777124155 | -2.22° C | 93% | 1013.5 hPa | 0 mm | - | 25 W/m² | - |
| 1777123851 | -2.22° C | 94% | 1013.2 hPa | 0 mm | - | 34 W/m² | - |
| 1777123547 | -2.22° C | 94% | 1013.4 hPa | 0 mm | - | 33 W/m² | - |
| 1777123244 | -2.22° C | 94% | 1013.5 hPa | 0 mm | - | 36 W/m² | - |
| 1777122940 | -2.78° C | 94% | 1013.2 hPa | 0 mm | - | 31 W/m² | - |
| 1777122636 | -2.78° C | 94% | 1013.4 hPa | 0 mm | - | 24 W/m² | - |
| 1777122331 | -2.78° C | 94% | 1013.4 hPa | 0 mm | - | 21 W/m² | - |
| 1777122029 | -2.78° C | 94% | 1013.1 hPa | 0 mm | - | 22 W/m² | - |
| 1777121724 | -2.78° C | 94% | 1013.2 hPa | 0 mm | - | 19 W/m² | - |
| 1777121422 | -2.78° C | 94% | 1013.1 hPa | 0 mm | - | 17 W/m² | - |
| 1777121122 | -2.78° C | 94% | 1013.1 hPa | 0 mm | - | 17 W/m² | - |
| 1777120819 | -2.78° C | 94% | 1013 hPa | 0 mm | - | 12 W/m² | - |
| 1777120515 | -2.78° C | 94% | 1012.9 hPa | 0 mm | - | 10 W/m² | - |
| 1777120211 | -2.78° C | 94% | 1012.9 hPa | 0 mm | - | 8 W/m² | - |
| 1777119906 | -2.78° C | 94% | 1012.7 hPa | 0 mm | - | 5 W/m² | - |
| 1777119603 | -2.78° C | 94% | 1012.6 hPa | 0 mm | - | 4 W/m² | - |
| 1777119299 | -2.78° C | 94% | 1012.6 hPa | 0 mm | - | 2 W/m² | - |
| 1777118993 | -2.78° C | 94% | 1012.5 hPa | 0 mm | - | 0 W/m² | - |
| 1777118689 | -2.78° C | 94% | 1012.5 hPa | 0 mm | - | 0 W/m² | - |
| 1777118384 | -2.22° C | 93% | 1012.5 hPa | 0 mm | - | 0 W/m² | - |
* Rain latest hour (hover to see other rain measurements)
** Current wind speed in m/s (hover to see current wind gust speed)